This demonstration page uses our WeatherBlox Daily Observations layout. Learn more.

Left ArrowRight Arrow

Hourly Observations for November 28, 2015

Temp ( °F °C ) Dew Point ( °F °C ) Humidity (%) Winds ( mph kmh ) Pressure ( in mb ) Visibility ( mi km ) Precip ( " mm )
12:53 am 00:53 Clear 51 10.6 49 9.4 92 92 Calm 30.32 1027 10 16 0.00 0.00
1:53 am 01:53 Clear 53 11.7 49 9.4 86 86 Calm 30.30 1026 10 16 0.00 0.00
2:53 am 02:53 Clear 51 10.6 48 8.9 89 89 Calm 30.31 1026 10 16 0.00 0.00
3:53 am 03:53 Clear 49 9.4 47 8.3 93 93 Calm 30.29 1026 8 13 0.00 0.00
4:17 am 04:17 Clear with Mist and Fog 49 9.4 47 8.3 93 93 Calm 30.30 1026 2 3 0.00 0.00
4:25 am 04:25 Clear 50 10 47 8.3 89 89 Calm 30.30 1026 10 16 0.00 0.00
4:53 am 04:53 Clear 48 8.9 46 7.8 93 93 Calm 30.28 1026 10 16 0.00 0.00
5:39 am 05:39 Clear 49 9.4 46 7.8 90 90 Calm 30.30 1026 10 16 0.00 0.00
5:53 am 05:53 Clear 47 8.3 45 7.2 93 93 Calm 30.30 1026 10 16 0.00 0.00
6:53 am 06:53 Clear 46 7.8 44 6.7 93 93 Calm 30.30 1026 10 16 0.00 0.00
7:53 am 07:53 Sunny 48 8.9 46 7.8 93 93 Calm 30.32 1027 10 16 0.00 0.00
8:53 am 08:53 Sunny 52 11.1 50 10 93 93 Calm 30.31 1026 10 16 0.00 0.00
9:53 am 09:53 Sunny 56 13.3 51 10.6 84 84 Calm 30.32 1027 10 16 0.00 0.00
10:53 am 10:53 Sunny 60 15.6 54 12.2 80 80 Calm 30.30 1026 10 16 0.00 0.00
11:53 am 11:53 Sunny 65 18.3 54 12.2 68 68 Calm 30.28 1026 10 16 0.00 0.00
12:53 pm 12:53 Sunny 69 20.6 54 12.2 59 59 VRB 3 6 30.25 1024 10 16 0.00 0.00
1:53 pm 13:53 Sunny 70 21.1 53 11.7 55 55 Calm 30.22 1023 10 16 0.00 0.00
2:53 pm 14:53 Mostly Sunny 71 21.7 54 12.2 55 55 Calm 30.19 1023 10 16 0.00 0.00
3:53 pm 15:53 Partly Cloudy 70 21.1 54 12.2 57 57 Calm 30.19 1022 10 16 0.00 0.00
4:53 pm 16:53 Sunny 70 21.1 53 11.7 55 55 SSE 5 7 30.18 1022 10 16 0.00 0.00
5:53 pm 17:53 Clear 62 16.7 54 12.2 75 75 Calm 30.20 1023 10 16 0.00 0.00
6:53 pm 18:53 Clear 61 16.1 54 12.2 78 78 Calm 30.21 1023 10 16 0.00 0.00
7:53 pm 19:53 Clear 60 15.6 54 12.2 80 80 Calm 30.21 1023 10 16 0.00 0.00
8:53 pm 20:53 Clear 55 12.8 52 11.1 90 90 Calm 30.22 1023 10 16 0.00 0.00
9:53 pm 21:53 Clear 55 12.8 52 11.1 90 90 Calm 30.23 1024 10 16 0.00 0.00
10:53 pm 22:53 Clear 55 12.8 52 11.1 90 90 Calm 30.23 1024 10 16 0.00 0.00
11:53 pm 23:53 Clear 55 12.8 52 11.1 90 90 Calm 30.22 1023 10 16 0.00 0.00

Powered by AerisWeather